Location: Newark
(25.2697°N, 55.3094°E)
Time: 08:50:38
(UTC+00:00)

Envisat - Visible Passes

Search period start: 18 November 2019 00:00
Search period end: 28 November 2019 00:00
Orbit: 764 x 766 km, 98.1° (Epoch: 17 November)

Date Brightness Start Highest point End Pass type
(mag) Time Alt. Az. Time Alt. Az. Time Alt. Az.
18 Nov 6.6 01:47:21 10° E 01:48:41 11° E 01:50:00 10° ESE visible
18 Nov 2.9 14:28:38 10° SSE 14:33:42 83° ENE 14:38:47 10° N visible
19 Nov 3.7 13:52:38 10° SE 13:57:05 32° ENE 14:01:33 10° NNE visible
19 Nov 5.6 15:32:28 10° SW 15:36:02 19° W 15:39:37 10° NW visible
20 Nov 5.9 02:10:23 10° NE 02:14:19 22° E 02:18:13 10° SSE visible
20 Nov 3.9 14:54:17 10° S 14:59:10 50° W 15:04:05 10° NNW visible
21 Nov 3.0 14:17:27 10° SSE 14:22:27 63° ENE 14:27:27 10° N visible
22 Nov 5.2 15:20:34 10° SSW 15:24:43 25° W 15:28:52 10° NW visible
23 Nov 6.0 01:59:45 10° NE 02:02:59 17° E 02:06:12 10° SE visible
23 Nov 3.4 14:42:52 10° S 14:47:54 67° W 14:52:56 10° NNW visible
24 Nov 3.2 14:06:23 10° SSE 14:11:13 47° ENE 14:16:04 10° N visible
24 Nov 6.1 15:48:09 10° WSW 15:50:20 13° W 15:52:31 10° WNW visible
25 Nov 4.7 15:08:52 10° SSW 15:13:25 33° W 15:17:59 10° NW visible
26 Nov 6.3 01:49:33 10° ENE 01:51:39 12° E 01:53:45 10° ESE visible
26 Nov 3.0 14:31:34 10° SSE 14:36:38 88° W 14:41:43 10° NNW visible
27 Nov 3.5 13:55:25 10° SE 14:00:00 35° ENE 14:04:36 10° N visible
27 Nov 5.7 15:35:44 10° SW 15:38:59 17° W 15:42:17 10° NW visible
